Weather History for K05U - April, 2013

Change the Weather History Date:

Thursday, April 11, 2013

  Actual Average Record
Temperature  
Mean Temperature 47 °F -  
Max Temperature 57 °F - - ()
Min Temperature 35 °F - - ()
Degree Days  
Heating Degree Days 18    
Moisture  
Dew Point 28 °F    
Average Humidity 53    
Maximum Humidity 93    
Minimum Humidity 18    
Precipitation  
Precipitation 0.01 in - - ()
Sea Level Pressure  
Sea Level Pressure 30.04 in    
Wind  
Wind Speed 7 mph (NNE)    
Max Wind Speed 16 mph    
Max Gust Speed 20 mph    
Visibility 10 miles    
Events      
T = Trace of Precipitation, MM = Missing Value Source: NWS Daily Summary

Daily Weather History Graph

Daily Weather History Graph

Search for Another Location

Airport or City:

Trip Planner

Search our weather history database for the weather conditions in past years. The results will help you decide how hot, cold, wet, or windy it might be!

Date:

Astronomy

Apr. 11, 2013 Rise Set
Actual Time 6:12 AM PDT 7:18 PM PDT
Civil Twilight 5:44 AM PDT 7:46 PM PDT
Nautical Twilight 5:11 AM PDT 8:19 PM PDT
Astronomical Twilight 4:37 AM PDT 8:53 PM PDT
Moon 6:46 AM PDT (4/11) 8:56 PM PDT (4/11)
Length of Visible Light 14h 01m
Length of Day
13h 06m
New Moon, 2% of the Moon is Illuminated
Apr 11
New Moon
Apr 18
First Quarter
Apr 25
Full
May 2
Last Quarter
May 9
New

Hourly Weather History & Observations

Time (PDT) Temp. Windchill Dew Point Humidity Pressure Visibility Wind Dir Wind Speed Gust Speed Precip Events Conditions
12:00 AM 48.2 °F - 26.6 °F 43% 30.04 in 10.0 mi Calm Calm - N/A   Mostly Cloudy
12:20 AM 46.4 °F 39.8 °F 26.6 °F 46% 30.06 in 10.0 mi North 16.1 mph - N/A   Mostly Cloudy
12:40 AM 46.4 °F 40.4 °F 32.0 °F 57% 30.08 in 10.0 mi NNW 13.8 mph - N/A   Mostly Cloudy
1:00 AM 46.4 °F 41.5 °F 35.6 °F 66% 30.07 in 10.0 mi North 10.4 mph - N/A   Overcast
1:20 AM 46.4 °F 42.9 °F 37.4 °F 71% 30.07 in 10.0 mi NNE 6.9 mph - N/A   Overcast
1:40 AM 44.6 °F 40.7 °F 37.4 °F 76% 30.07 in 10.0 mi NNE 6.9 mph - N/A   Overcast
2:00 AM 44.6 °F 40.2 °F 37.4 °F 76% 30.06 in 10.0 mi North 8.1 mph - N/A   Overcast
2:20 AM 44.6 °F 40.7 °F 37.4 °F 76% 30.06 in 10.0 mi NNE 6.9 mph - N/A   Overcast
2:40 AM 44.6 °F 41.4 °F 37.4 °F 76% 30.06 in 10.0 mi NNE 5.8 mph - N/A   Overcast
3:00 AM 42.8 °F 38.6 °F 37.4 °F 81% 30.05 in 10.0 mi NNE 6.9 mph - N/A   Overcast
3:20 AM 42.8 °F 40.1 °F 39.2 °F 87% 30.06 in 10.0 mi NNE 4.6 mph - N/A   Overcast
3:30 AM 41.0 °F 38.0 °F 39.2 °F 93% 30.07 in 8.0 mi NNW 4.6 mph - N/A   Overcast
5:30 AM - - - N/A% 30.03 in - Calm Calm - N/A   Unknown
5:50 AM 41.0 °F - 39.2 °F 93% 30.04 in 10.0 mi Calm Calm - N/A   Overcast
6:10 AM 41.0 °F - 39.2 °F 93% 30.05 in 10.0 mi Calm Calm - N/A   Overcast
6:30 AM 39.2 °F 33.6 °F 37.4 °F 93% 30.06 in 7.0 mi NNW 8.1 mph - N/A   Overcast
6:50 AM 39.2 °F 34.2 °F 37.4 °F 93% 30.06 in 1.2 mi North 6.9 mph - 0.01 in   Overcast
7:10 AM 39.2 °F 32.0 °F 37.4 °F 93% 30.08 in 3.0 mi North 11.5 mph 16.1 mph N/A   Overcast
7:30 AM 39.2 °F 33.0 °F 37.4 °F 93% 30.09 in 3.0 mi North 9.2 mph - N/A   Mostly Cloudy
7:50 AM 39.2 °F 31.6 °F 37.4 °F 93% 30.09 in 10.0 mi North 12.7 mph - N/A   Overcast
8:10 AM 41.0 °F 34.7 °F 37.4 °F 87% 30.10 in 10.0 mi North 10.4 mph - N/A   Mostly Cloudy
8:30 AM 44.6 °F 38.1 °F 39.2 °F 81% 30.10 in 10.0 mi NNW 13.8 mph 19.6 mph N/A   Mostly Cloudy
8:50 AM 42.8 °F 37.0 °F 37.4 °F 81% 30.10 in 10.0 mi NNW 10.4 mph - N/A   Scattered Clouds
9:10 AM 41.0 °F 34.3 °F 35.6 °F 81% 30.09 in 10.0 mi North 11.5 mph - N/A   Mostly Cloudy
9:30 AM 44.6 °F 38.1 °F 33.8 °F 66% 30.10 in 10.0 mi NNE 13.8 mph - N/A   Mostly Cloudy
9:50 AM 46.4 °F 40.7 °F 32.0 °F 57% 30.09 in 10.0 mi NNE 12.7 mph - N/A   Mostly Cloudy
10:10 AM 48.2 °F - 32.0 °F 54% 30.09 in 10.0 mi North 10.4 mph - N/A   Mostly Cloudy
10:30 AM 48.2 °F - 32.0 °F 54% 30.09 in 10.0 mi NE 5.8 mph - N/A   Clear
10:50 AM 48.2 °F - 32.0 °F 54% 30.09 in 10.0 mi North 6.9 mph - N/A   Scattered Clouds
11:10 AM 50.0 °F - 30.2 °F 47% 30.09 in 10.0 mi North 9.2 mph - N/A   Partly Cloudy
11:30 AM 50.0 °F - 28.4 °F 43% 30.08 in 10.0 mi NNE 8.1 mph - N/A   Clear
11:50 AM 50.0 °F - 26.6 °F 40% 30.08 in 10.0 mi North 6.9 mph - N/A   Clear
12:10 PM 51.8 °F - 28.4 °F 41% 30.07 in 10.0 mi North 9.2 mph 17.3 mph N/A   Clear
12:30 PM 50.0 °F - 26.6 °F 40% 30.07 in 10.0 mi NE 12.7 mph - N/A   Clear
12:50 PM 51.8 °F - 26.6 °F 38% 30.05 in 10.0 mi North 6.9 mph - N/A   Clear
1:10 PM 53.6 °F - 28.4 °F 38% 30.05 in 10.0 mi North 9.2 mph - N/A   Clear
1:30 PM 55.4 °F - 23.0 °F 29% 30.04 in 10.0 mi North 4.6 mph - N/A   Clear
1:50 PM 55.4 °F - 23.0 °F 29% 30.04 in 10.0 mi North 8.1 mph 17.3 mph N/A   Clear
2:10 PM 55.4 °F - 19.4 °F 25% 30.03 in 10.0 mi North 6.9 mph - N/A   Clear
2:30 PM 57.2 °F - 17.6 °F 21% 30.02 in 10.0 mi NNE 8.1 mph - N/A   Clear
2:50 PM 57.2 °F - 17.6 °F 21% 30.01 in 10.0 mi NE 9.2 mph - N/A   Clear
3:10 PM 57.2 °F - 14.0 °F 18% 30.00 in 10.0 mi NE 8.1 mph - N/A   Clear
3:30 PM 57.2 °F - 14.0 °F 18% 29.99 in 10.0 mi NE 8.1 mph - N/A   Clear
3:50 PM 57.2 °F - 14.0 °F 18% 29.99 in 10.0 mi North 9.2 mph - N/A   Clear
4:10 PM 57.2 °F - 15.8 °F 20% 29.98 in 10.0 mi NNE 10.4 mph - N/A   Clear
4:30 PM 57.2 °F - 15.8 °F 20% 29.98 in 10.0 mi NNE 10.4 mph - N/A   Clear
4:50 PM 57.2 °F - 14.0 °F 18% 29.98 in 10.0 mi NNE 11.5 mph 17.3 mph N/A   Clear
5:10 PM 57.2 °F - 15.8 °F 20% 29.98 in 10.0 mi NNE 11.5 mph 18.4 mph N/A   Clear
5:30 PM 55.4 °F - 15.8 °F 21% 29.98 in 10.0 mi NNE 13.8 mph 18.4 mph N/A   Clear
5:50 PM 55.4 °F - 17.6 °F 23% 29.99 in 10.0 mi NE 15.0 mph 18.4 mph N/A   Clear
6:10 PM 55.4 °F - 14.0 °F 20% 29.99 in 10.0 mi North 13.8 mph - N/A   Clear
6:30 PM 53.6 °F - 15.8 °F 22% 29.99 in 10.0 mi NNE 15.0 mph - N/A   Clear
6:50 PM 50.0 °F - 19.4 °F 30% 29.99 in 10.0 mi NNE 10.4 mph - N/A   Clear
7:10 PM 46.4 °F 42.4 °F 19.4 °F 34% 30.00 in 10.0 mi NNE 8.1 mph - N/A   Clear
7:30 PM 44.6 °F 40.7 °F 21.2 °F 39% 30.00 in 10.0 mi NNE 6.9 mph - N/A   Partly Cloudy
7:50 PM 44.6 °F 42.2 °F 23.0 °F 43% 30.01 in 10.0 mi NNE 4.6 mph - N/A   Partly Cloudy
8:10 PM 41.0 °F 36.4 °F 23.0 °F 49% 30.01 in 10.0 mi NNE 6.9 mph - N/A   Clear
8:30 PM 44.6 °F - 23.0 °F 43% 30.03 in 10.0 mi Calm Calm - N/A   Clear
8:50 PM 42.8 °F - 24.8 °F 49% 30.03 in 10.0 mi Calm Calm - N/A   Clear
9:10 PM 42.8 °F - 24.8 °F 49% 30.04 in 10.0 mi Calm Calm - N/A   Clear
9:30 PM 41.0 °F - 24.8 °F 53% 30.04 in 10.0 mi Calm Calm - N/A   Clear
9:50 PM 41.0 °F - 24.8 °F 53% 30.04 in 10.0 mi Calm Calm - N/A   Clear
10:10 PM 39.2 °F 35.9 °F 26.6 °F 61% 30.04 in 10.0 mi SSW 4.6 mph - N/A   Clear
10:30 PM 39.2 °F - 26.6 °F 61% 30.04 in 10.0 mi Calm Calm - N/A   Clear
10:50 PM 37.4 °F - 26.6 °F 65% 30.04 in 10.0 mi Calm Calm - N/A   Clear
11:10 PM 37.4 °F - 26.6 °F 65% 30.04 in 10.0 mi Calm Calm - N/A   Clear
11:30 PM 37.4 °F - 26.6 °F 65% 30.04 in 10.0 mi Calm Calm - N/A   Clear
11:50 PM 35.6 °F - 26.6 °F 70% 30.04 in 10.0 mi Calm Calm - N/A   Clear